ONEWEB-0234 (48783 NORAD) Tracking and Keplerian Element Data

This shows tracking and keplerian element data for the satellite.

Feedback or suggestion? Click here.




ElementValue
Catalog48783
NameONEWEB-0234
Epoch Orbit352
Epoch Day214.91667824
Epoch Year2021
RAAN254.6867
Inclination87.6198
Eccentricity0.0010055
Argument of Perigee30.5293
Mean Anonmoly324.0693
Mean Motion14.4599775
Decay Rate-0.01289776
L11 48783U 21045S 21214.91667824 -.01289776 00000-0 -39046+0 0 9998
L22 48783 87.6198 254.6867 0010055 30.5293 324.0693 14.45997750 3520

Live tracking and technical data element details for ONEWEB-0234 (NORAD 48783). ONEWEB-0234 can be tracked NOW for your location showing map with azimuth and elevation plus other details from your city location.

Track the satellite on the map from your city or location and see movement details for azimuth, elevation, latitude, longitude, range, height, and movement on the map or in text.







IsCatalogInMostPopularTable: catalog: 48783, numindb: 19
Update: records affected: 1



GetName: 48783 ONEWEB-0234

Hit Count: updated at: Tue, 03 Aug 2021 21:01:18 GMT